Tracking 31027 objects as of 19-Jul-2025
HD Live streaming from Space Station
objects crossing your sky now

COSMOS 917 DEB

Track COSMOS 917 DEB now!


NORAD ID: 26964
Int'l Code: 1977-047E
Perigee: 1,130.7 km
Apogee: 38,886.6 km
Inclination: 63.2 °
Period: 710.7 minutes
Semi major axis: 26379 km
RCS: 0.2518 m2 (medium)
Launch date: June 16, 1977
Source: Commonwealth of Independent States (former USSR) (CIS)
Launch site: PLESETSK MISSILE AND SPACE COMPLEX (PKMTR)

Note: This is SATELLITE DEBRIS
Your satellite tracking list
LANDSAT 5
Track 1 satellite(s)




NASA's NSSDC Master Catalog

Two Line Element Set (TLE):
1 26964U 77047E   25196.61632927  .00000857  00000-0  00000+0 0  9990
2 26964  63.2214 339.0264 7156241  34.7289 355.6711  2.02627618570636
Source of the keplerian elements: AFSPC